timestamp,surface_pressure_avg,surface_temp_avg,battery_voltage,lat,long
2018-08-24 00:00:00+00:00,323.8196,18.59,13.05,47.84626,-54.09684
2018-08-24 00:10:00+00:00,318.0247,18.59,12.97,47.84626,-54.09684
2018-08-24 00:20:00+00:00,315.358,18.59,13.05,47.84626,-54.09684
2018-08-24 00:30:00+00:00,308.0847,18.6,13.05,47.84626,-54.09684
2018-08-24 00:40:00+00:00,299.7296,18.6,13.13,47.84626,-54.09684
2018-08-24 00:50:00+00:00,292.823,18.6,13.13,47.84626,-54.09684
2018-08-24 01:00:00+00:00,286.0914,18.6,13.05,47.84626,-54.09684
2018-08-24 01:10:00+00:00,278.7164,18.59,12.97,47.84626,-54.09684
2018-08-24 01:20:00+00:00,272.7031,18.59,13.05,47.84626,-54.09684
2018-08-24 01:30:00+00:00,269.1897,18.59,13.05,47.84626,-54.09684
2018-08-24 01:40:00+00:00,265.6398,18.59,13.05,47.84626,-54.09684
2018-08-24 01:50:00+00:00,259.3364,18.59,13.13,47.84626,-54.09684
2018-08-24 02:00:00+00:00,250.9564,18.59,13.05,47.84626,-54.09684
2018-08-24 02:10:00+00:00,246.6281,18.6,12.97,47.84626,-54.09684
2018-08-24 02:20:00+00:00,243.2747,18.6,13.05,47.84626,-54.09684
2018-08-24 02:30:00+00:00,236.4247,18.6,13.05,47.84626,-54.09684
2018-08-24 02:40:00+00:00,230.8697,18.6,13.05,47.84626,-54.09684
2018-08-24 02:50:00+00:00,228.2781,18.6,13.05,47.84626,-54.09684
2018-08-24 03:00:00+00:00,224.9114,18.6,13.05,47.84626,-54.09684
2018-08-24 03:10:00+00:00,220.6814,18.6,12.97,47.84626,-54.09684
2018-08-24 03:20:00+00:00,220.1481,18.6,13.05,47.84626,-54.09684
2018-08-24 03:30:00+00:00,218.6614,18.6,13.05,47.84626,-54.09684
2018-08-24 03:40:00+00:00,216.4181,18.6,13.05,47.84626,-54.09684
2018-08-24 03:50:00+00:00,215.1714,18.64,13.05,47.84626,-54.09684
2018-08-24 04:00:00+00:00,212.4114,18.68,12.97,47.84626,-54.09684
2018-08-24 04:10:00+00:00,210.7448,18.68,12.97,47.84626,-54.09684
2018-08-24 04:20:00+00:00,212.2814,18.67,12.97,47.84626,-54.09684
2018-08-24 04:30:00+00:00,214.2464,18.63,13.05,47.84626,-54.09684
2018-08-24 04:40:00+00:00,216.6631,18.6,13.05,47.84626,-54.09684
2018-08-24 04:50:00+00:00,217.7481,18.6,13.05,47.84626,-54.09684
2018-08-24 05:00:00+00:00,220.0131,18.6,12.97,47.84626,-54.09684
2018-08-24 05:10:00+00:00,220.7348,18.6,12.89,47.84626,-54.09684
2018-08-24 05:20:00+00:00,219.5081,18.6,12.97,47.84626,-54.09684
2018-08-24 05:30:00+00:00,221.0281,18.6,12.97,47.84626,-54.09684
2018-08-24 05:40:00+00:00,221.9564,18.6,12.97,47.84626,-54.09684
2018-08-24 05:50:00+00:00,221.8564,18.6,13.05,47.84626,-54.09684
2018-08-24 06:00:00+00:00,223.6964,18.59,12.97,47.84626,-54.09684
2018-08-24 06:10:00+00:00,228.5714,18.56,12.89,47.84626,-54.09684
2018-08-24 06:20:00+00:00,231.6697,18.53,12.97,47.84626,-54.09684
2018-08-24 06:30:00+00:00,233.3665,18.55,12.97,47.84626,-54.09684
2018-08-24 06:40:00+00:00,238.5348,18.56,12.97,47.84626,-54.09684
2018-08-24 06:50:00+00:00,243.9348,18.55,12.97,47.84626,-54.09684
2018-08-24 07:00:00+00:00,246.0981,18.57,12.97,47.84626,-54.09684
2018-08-24 07:10:00+00:00,250.3798,18.57,12.89,47.84626,-54.09684
2018-08-24 07:20:00+00:00,259.8297,18.57,12.97,47.84626,-54.09684
2018-08-24 07:30:00+00:00,264.5931,18.58,12.97,47.84626,-54.09684
2018-08-24 07:40:00+00:00,266.1214,18.59,12.97,47.84626,-54.09684
2018-08-24 07:50:00+00:00,272.9714,18.59,12.97,47.84626,-54.09684
2018-08-24 08:00:00+00:00,283.9448,18.58,12.89,47.84626,-54.09684
2018-08-24 08:10:00+00:00,289.8414,18.59,12.81,47.84626,-54.09684
2018-08-24 08:20:00+00:00,293.408,18.59,12.89,47.84626,-54.09684
2018-08-24 08:30:00+00:00,299.4396,18.59,12.89,47.84626,-54.09684
2018-08-24 08:40:00+00:00,305.233,18.59,12.97,47.84626,-54.09684
2018-08-24 08:50:00+00:00,306.2797,18.6,12.97,47.84626,-54.09684
2018-08-24 09:00:00+00:00,309.0364,18.6,12.89,47.84626,-54.09684
2018-08-24 09:10:00+00:00,313.5747,18.6,12.81,47.84626,-54.09684
2018-08-24 09:20:00+00:00,317.923,18.59,12.89,47.84626,-54.09684
2018-08-24 09:30:00+00:00,316.7614,18.6,12.89,47.84626,-54.09684
2018-08-24 09:40:00+00:00,317.3963,18.6,12.97,47.84626,-54.09684
2018-08-24 09:50:00+00:00,322.8997,18.5,12.97,47.84626,-54.09684
2018-08-24 10:00:00+00:00,326.5229,18.51,12.97,47.84626,-54.09684
2018-08-24 10:10:00+00:00,324.6364,18.58,12.89,47.84626,-54.09684
2018-08-24 10:20:00+00:00,325.3913,18.5,12.97,47.84626,-54.09684
2018-08-24 10:30:00+00:00,332.0446,18.5,12.97,47.84626,-54.09684
2018-08-24 10:40:00+00:00,328.4547,18.51,12.97,47.84626,-54.09684
2018-08-24 10:50:00+00:00,322.6631,18.59,12.97,47.84626,-54.09684
2018-08-24 11:00:00+00:00,320.858,18.6,12.97,47.84626,-54.09684
2018-08-24 11:10:00+00:00,327.8446,18.59,12.89,47.84626,-54.09684
2018-08-24 11:20:00+00:00,328.298,18.59,12.97,47.84626,-54.09684
2018-08-24 11:30:00+00:00,318.5613,18.6,12.97,47.84626,-54.09684
2018-08-24 11:40:00+00:00,315.4896,18.6,12.97,47.84626,-54.09684
2018-08-24 11:50:00+00:00,316.218,18.6,13.05,47.84626,-54.09684
2018-08-24 12:00:00+00:00,314.6863,18.6,12.97,47.84626,-54.09684
2018-08-24 12:10:00+00:00,309.0897,18.6,12.89,47.84626,-54.09684
2018-08-24 12:20:00+00:00,309.0063,18.6,12.97,47.84626,-54.09684
2018-08-24 12:30:00+00:00,307.108,18.6,13.05,47.84626,-54.09684
2018-08-24 12:40:00+00:00,296.948,18.6,13.13,47.84626,-54.09684
2018-08-24 12:50:00+00:00,287.263,18.6,13.29,47.84626,-54.09684
2018-08-24 13:00:00+00:00,281.9097,18.6,13.53,47.84626,-54.09684
2018-08-24 13:10:00+00:00,278.533,18.6,13.53,47.84626,-54.09684
2018-08-24 13:20:00+00:00,271.6614,18.6,13.6,47.84626,-54.09684
2018-08-24 13:30:00+00:00,264.7631,18.6,13.68,47.84626,-54.09684
2018-08-24 13:40:00+00:00,258.8297,18.6,13.84,47.84626,-54.09684
2018-08-24 13:50:00+00:00,254.5014,18.6,13.76,47.84626,-54.09684
2018-08-24 14:00:00+00:00,248.1864,18.6,14.0,47.84626,-54.09684
2018-08-24 14:10:00+00:00,239.5331,18.6,14.64,47.84626,-54.09684
2018-08-24 14:20:00+00:00,231.6947,18.62,15.99,47.84626,-54.09684
2018-08-24 14:30:00+00:00,227.7198,18.64,14.8,47.84626,-54.09684
2018-08-24 14:40:00+00:00,225.0898,18.64,14.48,47.84626,-54.09684
2018-08-24 14:50:00+00:00,219.5531,18.67,14.48,47.84626,-54.09684
2018-08-24 15:00:00+00:00,214.9532,18.7,14.72,47.84626,-54.09684
2018-08-24 15:10:00+00:00,214.3581,18.7,14.56,47.84626,-54.09684
2018-08-24 15:20:00+00:00,213.4814,18.7,14.64,47.84626,-54.09684
2018-08-24 15:30:00+00:00,207.5798,18.7,14.64,47.84626,-54.09684
2018-08-24 15:40:00+00:00,205.4148,18.7,14.32,47.84626,-54.09684
2018-08-24 15:50:00+00:00,207.6731,18.7,14.4,47.84626,-54.09684
2018-08-24 16:00:00+00:00,205.2864,18.7,14.16,47.84626,-54.09684
2018-08-24 16:10:00+00:00,203.6682,18.75,14.08,47.84626,-54.09684
2018-08-24 16:20:00+00:00,204.6331,18.78,14.48,47.84626,-54.09684
2018-08-24 16:30:00+00:00,204.1614,18.78,14.56,47.84626,-54.09684
2018-08-24 16:40:00+00:00,203.8848,18.79,14.48,47.84626,-54.09684
2018-08-24 16:50:00+00:00,204.2432,18.8,14.4,47.84626,-54.09684
2018-08-24 17:00:00+00:00,205.3381,18.8,14.32,47.84626,-54.09684
2018-08-24 17:10:00+00:00,208.9331,18.79,14.24,47.84626,-54.09684
2018-08-24 17:20:00+00:00,213.5414,18.78,14.4,47.84626,-54.09684
2018-08-24 17:30:00+00:00,213.5598,18.79,14.32,47.84626,-54.09684
2018-08-24 17:40:00+00:00,216.3015,18.8,14.32,47.84626,-54.09684
2018-08-24 17:50:00+00:00,221.7931,18.8,14.24,47.84626,-54.09684
2018-08-24 18:00:00+00:00,222.6364,18.8,14.24,47.84626,-54.09684
2018-08-24 18:10:00+00:00,224.5431,18.8,14.0,47.84626,-54.09684
2018-08-24 18:20:00+00:00,230.3547,18.7,14.08,47.84626,-54.09684
2018-08-24 18:30:00+00:00,234.9748,18.7,14.08,47.84626,-54.09684
2018-08-24 18:40:00+00:00,238.5864,18.69,14.08,47.84626,-54.09684
2018-08-24 18:50:00+00:00,244.2748,18.66,14.08,47.84626,-54.09684
2018-08-24 19:00:00+00:00,253.2614,18.6,14.0,47.84626,-54.09684
2018-08-24 19:10:00+00:00,259.318,18.6,13.92,47.84626,-54.09684
2018-08-24 19:20:00+00:00,263.7997,18.6,14.0,47.84626,-54.09684
2018-08-24 19:30:00+00:00,268.0164,18.6,14.0,47.84626,-54.09684
2018-08-24 19:40:00+00:00,275.6981,18.5,14.0,47.84626,-54.09684
2018-08-24 19:50:00+00:00,281.7164,18.49,14.0,47.84626,-54.09684
2018-08-24 20:00:00+00:00,286.988,18.49,13.92,47.84626,-54.09684
2018-08-24 20:10:00+00:00,292.558,18.49,13.76,47.84626,-54.09684
2018-08-24 20:20:00+00:00,299.698,18.49,13.76,47.84626,-54.09684
2018-08-24 20:30:00+00:00,302.9613,18.5,13.76,47.84626,-54.09684
2018-08-24 20:40:00+00:00,307.083,18.5,13.76,47.84626,-54.09684
2018-08-24 20:50:00+00:00,314.7697,18.5,13.76,47.84626,-54.09684
2018-08-24 21:00:00+00:00,324.668,18.5,13.68,47.84626,-54.09684
2018-08-24 21:10:00+00:00,328.9814,18.49,13.6,47.84626,-54.09684
2018-08-24 21:20:00+00:00,333.0729,18.4,13.68,47.84626,-54.09684
2018-08-24 21:30:00+00:00,339.6597,18.3,13.6,47.84626,-54.09684
2018-08-24 21:40:00+00:00,343.2296,18.3,13.6,47.84626,-54.09684
2018-08-24 21:50:00+00:00,344.7246,18.3,13.6,47.84626,-54.09684
2018-08-24 22:00:00+00:00,348.173,18.3,13.53,47.84626,-54.09684
2018-08-24 22:10:00+00:00,352.9563,18.3,13.37,47.84626,-54.09684
2018-08-24 22:20:00+00:00,353.063,18.3,13.37,47.84626,-54.09684
2018-08-24 22:30:00+00:00,352.3696,18.3,13.29,47.84626,-54.09684
2018-08-24 22:40:00+00:00,358.0796,18.3,13.29,47.84626,-54.09684
2018-08-24 22:50:00+00:00,361.9029,18.3,13.29,47.84626,-54.09684
2018-08-24 23:00:00+00:00,358.7963,18.35,13.21,47.84626,-54.09684
2018-08-24 23:10:00+00:00,357.1646,18.3,13.13,47.84626,-54.09684
2018-08-24 23:20:00+00:00,358.218,18.29,13.13,47.84626,-54.09684
2018-08-24 23:30:00+00:00,356.793,18.3,13.13,47.84626,-54.09684
2018-08-24 23:40:00+00:00,350.803,18.3,13.13,47.84626,-54.09684
2018-08-24 23:50:00+00:00,349.438,18.28,13.21,47.84626,-54.09684
